Stations météo

réclame
Mon MeteoGroup
Guernsey, Grande-Bretagne (3894): Température de l'air & dewpoint: 17.09.2018 03:00:00 - 23.09.2018 03:00:00 (BST)Guernsey, Grande-Bretagne (3894): Température de l'air -20cm & Température de l'air -100cm: 17.09.2018 03:00:00 - 23.09.2018 03:00:00 (BST)Guernsey, Grande-Bretagne (3894): Vitesse du vent & gusts: 17.09.2018 03:00:00 - 23.09.2018 03:00:00 (BST)Guernsey, Grande-Bretagne (3894): Direction du vent: 17.09.2018 03:00:00 - 23.09.2018 03:00:00 (BST)Guernsey, Grande-Bretagne (3894): reduced air pressure: 17.09.2018 03:00:00 - 23.09.2018 03:00:00 (BST)Guernsey, Grande-Bretagne (3894): visibility: 17.09.2018 03:00:00 - 23.09.2018 03:00:00 (BST)Guernsey, Grande-Bretagne (3894): Quantités de précipitations: 17.09.2018 03:00:00 - 23.09.2018 03:00:00 (BST)
Date & Time tt [°C] td [°C] tt -20cm [°C] tt -100cm [°C] ff [km/h] ff [knt] fx [km/h] fx [knt] dd ppp [hPa] vv [km] rr [mm]
23.09.2018 03:00:00 17,0 17,0 - - 35 19 50 27 WSW 1013,4 0,5 -
23.09.2018 02:00:00 17,1 17,1 - - 37 20 54 29 WSW 1013,6 1,1 -
23.09.2018 01:00:00 17,2 17,2 - - 39 21 55 30 WSW 1013,6 1,5 -
23.09.2018 00:00:00 17,4 17,4 - - 39 21 55 30 WSW 1013,4 1,5 -
22.09.2018 23:00:00 17,4 17,4 - - 39 21 57 31 WSW 1013,3 1,2 -
22.09.2018 22:00:00 17,4 17,4 - - 42 23 61 33 WSW 1013,2 1,5 -
22.09.2018 21:00:00 17,5 17,4 - - 42 23 59 32 WSW 1012,7 1,6 -
22.09.2018 20:00:00 17,4 17,4 - - 42 23 67 36 WSW 1012,1 1,6 -
22.09.2018 19:00:00 17,5 17,4 - - 44 24 65 35 WSW 1011,6 1,6 -
22.09.2018 18:00:00 17,6 17,6 - - 46 25 65 35 WSW 1011,4 1,0 -
22.09.2018 17:00:00 17,7 17,7 - - 46 25 61 33 WSW 1011,2 0,9 -
22.09.2018 16:00:00 16,5 16,4 - - 29 16 46 25 SSW 1012,0 0,5 -
22.09.2018 15:00:00 15,0 14,8 - - 31 17 54 29 S 1013,3 3,0 -
22.09.2018 14:00:00 13,4 13,0 - - 39 21 54 29 SSE 1014,3 3,5 -
22.09.2018 13:00:00 12,2 11,7 - - 29 16 - - SE 1016,5 5 -
22.09.2018 12:00:00 12,3 10,4 - - 26 14 - - S 1018,5 10 -
22.09.2018 11:00:00 11,9 10,2 - - 21 11 - - S 1020,0 7 -
22.09.2018 10:00:00 13,8 10,5 16,0 16,7 15 8 - - S 1020,3 4,0 -
22.09.2018 09:00:00 13,3 10,4 - - 13 7 - - SSW 1020,8 10 -
22.09.2018 08:00:00 12,3 9,3 - - 9 5 - - SW 1021,3 10 -
22.09.2018 07:00:00 12,5 10,1 - - 9 5 - - SW 1021,1 10 -
22.09.2018 06:00:00 13,3 9,0 - - 11 6 - - WSW 1021,3 10 -
22.09.2018 05:00:00 13,5 8,0 - - 15 8 - - W 1021,7 10 -
22.09.2018 04:00:00 13,8 7,8 - - 18 10 - - W 1022,3 10 -
22.09.2018 03:00:00 13,9 8,1 - - 21 11 - - W 1021,9 10 -
22.09.2018 02:00:00 13,6 7,8 - - 16 9 - - W 1022,4 10 -
22.09.2018 01:00:00 13,6 7,6 - - 16 9 - - W 1022,1 10 0,0
22.09.2018 00:00:00 13,4 6,7 - - 18 10 - - W 1022,8 10 -
21.09.2018 23:00:00 13,5 6,5 - - 26 14 - - W 1022,6 10 -
21.09.2018 22:00:00 13,6 8,1 - - 21 11 - - W 1021,9 10 -
21.09.2018 21:00:00 13,6 7,2 - - 24 13 - - W 1021,5 10 -
21.09.2018 20:00:00 13,7 7,3 - - 29 16 - - W 1020,9 10 -
21.09.2018 19:00:00 14,2 8,4 - - 28 15 46 25 W 1020,0 10 -
21.09.2018 18:00:00 14,7 7,1 - - 28 15 50 27 W 1019,6 10 -
21.09.2018 17:00:00 15,9 8,1 - - 37 20 55 30 W 1018,9 10 -
21.09.2018 16:00:00 15,2 6,6 - - 35 19 55 30 W 1018,9 10 -
21.09.2018 15:00:00 14,9 6,2 - - 37 20 59 32 W 1018,3 10 -
21.09.2018 14:00:00 13,4 11,1 - - 31 17 59 32 W 1018,0 10 -
21.09.2018 13:00:00 15,7 5,1 - - 41 22 55 30 W 1017,3 10 0,0
21.09.2018 12:00:00 15,1 6,5 - - 37 20 54 29 W 1016,4 10 -
21.09.2018 11:00:00 13,6 7,6 - - 29 16 55 30 WNW 1015,6 10 -
21.09.2018 10:00:00 13,9 7,3 16,9 16,7 35 19 52 28 W 1014,8 10 -
21.09.2018 09:00:00 13,3 5,3 - - 37 20 54 29 W 1013,8 10 -
21.09.2018 08:00:00 12,4 6,5 - - 29 16 48 26 WNW 1012,7 10 -
21.09.2018 07:00:00 12,3 6,4 - - 34 18 59 32 WNW 1011,3 10 -
21.09.2018 06:00:00 12,7 7,4 - - 31 17 59 32 WNW 1010,0 10 -
21.09.2018 05:00:00 13,1 8,1 - - 35 19 67 36 WNW 1008,4 10 -
21.09.2018 04:00:00 14,0 10,5 - - 46 25 74 40 W 1007,4 10 -
21.09.2018 03:00:00 14,5 10,3 - - 50 27 70 38 W 1006,4 10 -
21.09.2018 02:00:00 14,9 12,6 - - 39 21 61 33 W 1005,6 10 -
21.09.2018 01:00:00 15,1 15,0 - - 42 23 61 33 WSW 1004,6 1,5 -
21.09.2018 00:00:00 17,1 16,6 - - 34 18 52 28 S 1003,9 10 -
20.09.2018 23:00:00 17,4 16,3 - - 34 18 50 27 SSW 1005,4 8 -
20.09.2018 22:00:00 18,2 15,9 - - 35 19 52 28 SSW 1006,5 10 -
20.09.2018 21:00:00 17,7 16,2 - - 29 16 57 31 SSW 1007,6 10 -
20.09.2018 20:00:00 18,5 15,9 - - 29 16 - - SSW 1008,2 10 -
20.09.2018 19:00:00 18,6 15,7 - - 24 13 - - SSW 1009,0 10 0,0
20.09.2018 18:00:00 18,8 15,5 - - 21 11 - - SSW 1009,6 10 -
20.09.2018 17:00:00 19,7 14,7 - - 31 17 - - SW 1010,8 10 -
20.09.2018 16:00:00 19,6 15,1 - - 24 13 - - SW 1011,7 10 -
20.09.2018 15:00:00 20,0 15,5 - - 28 15 - - SSW 1012,1 10 -
20.09.2018 14:00:00 19,7 15,4 - - 24 13 - - SSW 1012,7 10 -
20.09.2018 13:00:00 18,8 15,8 - - 21 11 - - SSW 1013,5 10 0,0
20.09.2018 12:00:00 18,7 15,5 - - 22 12 - - SSW 1014,3 10 -
20.09.2018 11:00:00 18,2 15,4 - - 24 13 - - S 1014,8 10 -
20.09.2018 10:00:00 17,7 15,1 17,7 16,7 26 14 - - SSW 1015,2 10 -
20.09.2018 09:00:00 17,7 15,2 - - 24 13 - - SSW 1015,4 10 -
20.09.2018 08:00:00 17,0 15,2 - - 26 14 - - SSW 1015,3 10 -
20.09.2018 07:00:00 17,0 15,2 - - 24 13 - - SW 1015,7 10 0,0
20.09.2018 06:00:00 16,8 15,1 - - 26 14 - - SW 1015,6 10 -
20.09.2018 05:00:00 16,6 15,0 - - 28 15 - - SW 1015,8 10 -
20.09.2018 04:00:00 16,8 14,5 - - 31 17 46 25 SW 1016,1 10 -
20.09.2018 03:00:00 16,7 14,9 - - 24 13 - - SW 1016,2 10 -
20.09.2018 02:00:00 16,5 15,7 - - 18 10 - - SSW 1016,4 10 -
20.09.2018 01:00:00 16,6 15,4 - - 22 12 - - SSW 1016,6 10 0,0
20.09.2018 00:00:00 17,0 16,2 - - 21 11 - - SSW 1016,8 10 -
19.09.2018 23:00:00 17,1 15,8 - - 21 11 - - SW 1017,3 10 -
19.09.2018 22:00:00 16,6 15,7 - - 21 11 - - SW 1017,4 10 -
19.09.2018 21:00:00 16,8 14,9 - - 21 11 - - WSW 1017,6 10 -
19.09.2018 20:00:00 17,1 15,0 - - 22 12 - - WSW 1017,5 10 -
19.09.2018 19:00:00 17,6 15,3 - - 28 15 48 26 WSW 1017,3 10 0,0
19.09.2018 18:00:00 18,8 15,7 - - 31 17 - - WSW 1016,9 10 -
19.09.2018 17:00:00 19,3 16,3 - - 28 15 - - WSW 1016,6 10 -
19.09.2018 16:00:00 20,5 16,2 - - 31 17 - - WSW 1016,6 10 -
19.09.2018 15:00:00 20,6 16,1 - - 29 16 - - SW 1016,9 10 -
19.09.2018 14:00:00 20,9 15,9 - - 34 18 - - SW 1016,8 10 -
19.09.2018 13:00:00 20,5 15,5 - - 35 19 46 25 SW 1016,5 10 0,0
19.09.2018 12:00:00 19,2 15,4 - - 29 16 46 25 SW 1016,4 10 -
19.09.2018 11:00:00 19,2 15,9 - - 29 16 - - SSW 1016,1 10 -
19.09.2018 10:00:00 18,3 16,0 17,7 16,7 26 14 - - SSW 1016,0 10 -
19.09.2018 09:00:00 17,6 15,8 - - 22 12 - - SSW 1015,5 10 -
19.09.2018 08:00:00 17,5 15,9 - - 28 15 - - SSW 1015,0 10 -
19.09.2018 07:00:00 17,1 15,7 - - 24 13 - - SSW 1014,6 10 0,0
19.09.2018 06:00:00 17,0 15,3 - - 26 14 - - SSW 1014,3 10 -
19.09.2018 05:00:00 16,8 15,5 - - 22 12 - - SSW 1014,4 10 -
19.09.2018 04:00:00 17,1 15,5 - - 24 13 - - SSW 1014,8 10 -
19.09.2018 03:00:00 17,2 15,5 - - 24 13 - - SSW 1014,8 10 -
19.09.2018 02:00:00 17,4 15,7 - - 21 11 - - SSW 1015,2 10 -
19.09.2018 01:00:00 17,4 15,4 - - 22 12 - - SSW 1015,3 10 0,0
19.09.2018 00:00:00 17,5 15,0 - - 22 12 - - SSW 1015,0 10 -
18.09.2018 23:00:00 17,5 14,4 - - 22 12 - - SSW 1014,8 10 -
18.09.2018 22:00:00 17,6 14,7 - - 16 9 - - SW 1015,0 10 -
18.09.2018 21:00:00 17,6 15,0 - - 16 9 - - SSW 1015,2 10 -
18.09.2018 20:00:00 17,8 15,0 - - 16 9 - - SW 1014,8 10 -
18.09.2018 19:00:00 18,0 15,1 - - 13 7 - - SSW 1014,4 10 0,0
18.09.2018 18:00:00 18,6 14,4 - - 15 8 - - SW 1014,2 10 -
18.09.2018 17:00:00 18,7 14,0 - - 18 10 - - SW 1014,3 10 -
18.09.2018 16:00:00 19,3 13,7 - - 24 13 - - SW 1014,2 10 -
18.09.2018 15:00:00 19,9 14,0 - - 24 13 - - SW 1014,2 10 -
18.09.2018 14:00:00 19,9 14,6 - - 24 13 - - SW 1014,1 10 -
18.09.2018 13:00:00 19,9 14,9 - - 34 18 - - SW 1013,9 10 0,0
18.09.2018 12:00:00 18,6 15,1 - - 31 17 - - SW 1013,9 10 -
18.09.2018 11:00:00 17,5 14,9 - - 31 17 46 25 WSW 1013,7 10 -
18.09.2018 10:00:00 18,6 14,0 17,5 16,7 31 17 55 30 WSW 1012,7 10 -
18.09.2018 09:00:00 17,2 13,2 - - 34 18 52 28 WSW 1011,5 10 -
18.09.2018 08:00:00 16,6 14,0 - - 39 21 57 31 WSW 1010,6 10 -
18.09.2018 07:00:00 17,3 13,7 - - 41 22 59 32 WSW 1009,9 10 0,0
18.09.2018 06:00:00 17,6 13,8 - - 42 23 67 36 SW 1009,2 10 -
18.09.2018 05:00:00 17,7 14,4 - - 37 20 63 34 SW 1008,9 10 -
18.09.2018 04:00:00 17,7 13,6 - - 44 24 67 36 WSW 1008,3 10 -
18.09.2018 03:00:00 18,2 16,0 - - 31 17 46 25 SW 1008,3 10 -
18.09.2018 02:00:00 17,5 16,2 - - 24 13 - - S 1008,1 10 -
18.09.2018 01:00:00 18,0 16,1 - - 28 15 - - SSW 1008,5 10 0,0
18.09.2018 00:00:00 17,7 15,9 - - 21 11 - - S 1008,6 10 -
17.09.2018 23:00:00 17,8 15,8 - - 22 12 - - SSW 1008,9 10 -
17.09.2018 22:00:00 17,8 15,3 - - 22 12 - - SSW 1009,3 10 -
17.09.2018 21:00:00 19,0 13,2 - - 21 11 - - SSW 1009,1 10 -
17.09.2018 20:00:00 19,6 13,6 - - 21 11 - - S 1009,0 10 -
17.09.2018 19:00:00 20,7 12,8 - - 18 10 - - SSE 1009,2 10 0,0
17.09.2018 18:00:00 21,7 11,7 - - 18 10 - - SSE 1009,7 10 -
17.09.2018 17:00:00 22,2 11,1 - - 21 11 - - SSE 1010,6 10 -
17.09.2018 16:00:00 21,4 11,2 - - 21 11 - - SE 1011,8 10 -
17.09.2018 15:00:00 21,0 12,5 - - 21 11 - - SSE 1012,6 10 -
17.09.2018 14:00:00 19,8 13,1 - - 22 12 - - SSE 1013,5 10 -
17.09.2018 13:00:00 19,0 15,0 - - 22 12 - - SSE 1014,6 10 0,0
17.09.2018 12:00:00 17,9 14,7 - - 22 12 - - S 1015,6 10 -
17.09.2018 11:00:00 17,7 15,7 - - 18 10 - - S 1016,2 10 -
17.09.2018 10:00:00 17,3 16,3 16,7 16,7 16 9 - - S 1016,6 10 -
17.09.2018 09:00:00 16,7 16,6 - - 16 9 - - SSE 1016,7 10 -
17.09.2018 08:00:00 15,9 15,8 - - 13 7 - - SSE 1017,0 5 -
17.09.2018 07:00:00 15,5 15,5 - - 9 5 - - SSE 1017,4 2,5 0,0
17.09.2018 06:00:00 15,3 15,0 - - 9 5 - - S 1017,9 10 -
17.09.2018 05:00:00 15,0 14,7 - - 11 6 - - S 1018,0 10 -
17.09.2018 04:00:00 15,8 15,6 - - 13 7 - - S 1018,0 10 -
17.09.2018 03:00:00 15,9 15,5 - - 13 7 - - SSW 1018,5 10 -

tt = Température de l'air
td = dewpoint
tt -20cm = Température de l'air -20cm
tt -100cm = Température de l'air -100cm
ff = Vitesse du vent
fx = gusts
dd = Direction du vent
ppp = reduced air pressure
vv = visibility
rr = Quantités de précipitations

stations d'obs. à proximité